Time,TemperatureF,DewpointF,PressureIn,WindDirection,WindDirectionDegrees,WindSpeedMPH,WindSpeedGustMPH,Humidity,HourlyPrecipIn,Conditions,Clouds,dailyrainin,SoftwareType,DateUTC
2013-05-11 00:03:00,72.0,62.0,-100.00,West,260,4.0,7.0,73,-99.99,,,-99.99,,2013-05-11 04:03:00,
2013-05-11 00:12:00,71.0,63.0,-100.00,WSW,255,3.0,6.0,74,-99.99,,,-99.99,,2013-05-11 04:12:00,
2013-05-11 00:23:00,71.0,63.0,-100.00,WSW,245,3.0,8.0,75,-99.99,,,-99.99,,2013-05-11 04:23:00,
2013-05-11 00:33:00,71.0,63.0,-100.00,SW,220,4.0,6.0,76,-99.99,,,-99.99,,2013-05-11 04:33:00,
2013-05-11 00:43:00,71.0,63.0,-100.00,West,260,4.0,8.0,76,-99.99,,,-99.99,,2013-05-11 04:43:00,
2013-05-11 00:52:00,71.0,63.0,-100.00,West,260,4.0,8.0,76,-99.99,,,-99.99,,2013-05-11 04:52:00,
2013-05-11 01:02:00,70.0,63.0,-100.00,SW,235,3.0,7.0,78,-99.99,,,-99.99,,2013-05-11 05:02:00,
2013-05-11 01:12:00,70.0,63.0,-100.00,SW,235,4.0,9.0,79,-99.99,,,-99.99,,2013-05-11 05:12:00,
2013-05-11 01:22:00,70.0,63.0,-100.00,WSW,250,4.0,6.0,80,-99.99,,,-99.99,,2013-05-11 05:22:00,
2013-05-11 01:32:00,69.0,63.0,-100.00,SW,230,4.0,8.0,81,-99.99,,,-99.99,,2013-05-11 05:32:00,
2013-05-11 01:42:00,69.0,63.0,-100.00,SW,235,2.0,7.0,81,-99.99,,,-99.99,,2013-05-11 05:42:00,
2013-05-11 01:52:00,69.0,63.0,-100.00,SW,235,4.0,8.0,81,-99.99,,,-99.99,,2013-05-11 05:52:00,
2013-05-11 02:02:00,69.0,63.0,-100.00,WSW,250,4.0,9.0,81,-99.99,,,-99.99,,2013-05-11 06:02:00,
2013-05-11 02:12:00,69.0,63.0,-100.00,WSW,250,4.0,6.0,81,-99.99,,,-99.99,,2013-05-11 06:12:00,
2013-05-11 02:22:00,69.0,63.0,-100.00,WSW,250,4.0,7.0,81,-99.99,,,-99.99,,2013-05-11 06:22:00,
2013-05-11 02:32:00,69.0,63.0,-100.00,SW,230,4.0,7.0,81,-99.99,,,-99.99,,2013-05-11 06:32:00,
2013-05-11 02:42:00,69.0,63.0,-100.00,SW,235,1.0,8.0,81,-99.99,,,-99.99,,2013-05-11 06:42:00,
2013-05-11 02:52:00,69.0,63.0,-100.00,WSW,245,3.0,7.0,81,-99.99,,,-99.99,,2013-05-11 06:52:00,
2013-05-11 03:02:00,68.0,63.0,-100.00,WSW,250,4.0,8.0,82,-99.99,,,-99.99,,2013-05-11 07:02:00,
2013-05-11 03:12:00,68.0,63.0,-100.00,WSW,250,2.0,9.0,83,-99.99,,,-99.99,,2013-05-11 07:12:00,
2013-05-11 03:22:00,68.0,62.0,-100.00,WSW,250,4.0,9.0,83,-99.99,,,-99.99,,2013-05-11 07:22:00,
2013-05-11 03:32:00,68.0,63.0,-100.00,WSW,245,4.0,8.0,84,-99.99,,,-99.99,,2013-05-11 07:32:00,
2013-05-11 03:42:00,67.0,63.0,-100.00,WSW,250,3.0,6.0,85,-99.99,,,-99.99,,2013-05-11 07:42:00,
2013-05-11 03:52:00,67.0,63.0,-100.00,West,260,4.0,9.0,86,-99.99,,,-99.99,,2013-05-11 07:52:00,
2013-05-11 04:02:00,67.0,63.0,-100.00,WSW,255,2.0,7.0,87,-99.99,,,-99.99,,2013-05-11 08:02:00,
2013-05-11 04:12:00,67.0,63.0,-100.00,WSW,255,4.0,8.0,88,-99.99,,,-99.99,,2013-05-11 08:12:00,
2013-05-11 04:21:00,67.0,63.0,-100.00,West,270,4.0,9.0,89,-99.99,,,-99.99,,2013-05-11 08:21:00,
2013-05-11 04:32:00,66.0,63.0,-100.00,West,270,2.0,7.0,89,-99.99,,,-99.99,,2013-05-11 08:32:00,
2013-05-11 04:42:00,66.0,63.0,-100.00,West,265,4.0,6.0,89,-99.99,,,-99.99,,2013-05-11 08:42:00,
2013-05-11 04:52:00,66.0,63.0,-100.00,WSW,250,2.0,6.0,89,-99.99,,,-99.99,,2013-05-11 08:52:00,
2013-05-11 05:01:00,66.0,63.0,-100.00,SW,235,4.0,8.0,89,-99.99,,,-99.99,,2013-05-11 09:01:00,
2013-05-11 05:11:00,66.0,63.0,-100.00,West,260,4.0,8.0,89,-99.99,,,-99.99,,2013-05-11 09:11:00,
2013-05-11 05:21:00,65.0,63.0,-100.00,West,270,5.0,8.0,91,-99.99,,,-99.99,,2013-05-11 09:21:00,
2013-05-11 05:33:00,65.0,63.0,-100.00,SW,235,4.0,8.0,91,-99.99,,,-99.99,,2013-05-11 09:33:00,
2013-05-11 05:42:00,65.0,63.0,-100.00,West,265,3.0,8.0,92,-99.99,,,-99.99,,2013-05-11 09:42:00,
2013-05-11 05:52:00,65.0,63.0,-100.00,SW,230,2.0,7.0,93,-99.99,,,-99.99,,2013-05-11 09:52:00,
2013-05-11 06:03:00,65.0,63.0,-100.00,West,260,4.0,8.0,93,-99.99,,,-99.99,,2013-05-11 10:03:00,
2013-05-11 06:12:00,65.0,63.0,-100.00,West,260,3.0,7.0,94,-99.99,,,-99.99,,2013-05-11 10:12:00,
2013-05-11 06:22:00,64.0,63.0,-100.00,WSW,250,4.0,6.0,94,-99.99,,,-99.99,,2013-05-11 10:22:00,
2013-05-11 06:33:00,64.0,62.0,-100.00,West,260,1.0,6.0,94,-99.99,,,-99.99,,2013-05-11 10:33:00,
2013-05-11 06:42:00,64.0,63.0,-100.00,WSW,250,5.0,7.0,96,-99.99,,,-99.99,,2013-05-11 10:42:00,
2013-05-11 06:52:00,64.0,63.0,-100.00,WSW,250,4.0,7.0,96,-99.99,,,-99.99,,2013-05-11 10:52:00,
2013-05-11 07:03:00,64.0,63.0,-100.00,WSW,240,1.0,5.0,96,-99.99,,,-99.99,,2013-05-11 11:03:00,
2013-05-11 07:12:00,64.0,63.0,-100.00,WSW,245,2.0,5.0,96,-99.99,,,-99.99,,2013-05-11 11:12:00,
2013-05-11 07:22:00,64.0,63.0,-100.00,SW,235,3.0,6.0,97,-99.99,,,-99.99,,2013-05-11 11:22:00,
2013-05-11 07:32:00,64.0,63.0,-100.00,WSW,250,1.0,6.0,97,-99.99,,,-99.99,,2013-05-11 11:32:00,
2013-05-11 07:42:00,64.0,63.0,-100.00,SW,235,4.0,5.0,97,-99.99,,,-99.99,,2013-05-11 11:42:00,
2013-05-11 07:52:00,64.0,63.0,-100.00,SW,235,2.0,4.0,97,-99.99,,,-99.99,,2013-05-11 11:52:00,
2013-05-11 08:01:00,64.0,63.0,-100.00,SW,235,3.0,6.0,96,-99.99,,,-99.99,,2013-05-11 12:01:00,
2013-05-11 08:11:00,65.0,64.0,-100.00,WSW,240,3.0,5.0,96,-99.99,,,-99.99,,2013-05-11 12:11:00,
2013-05-11 08:22:00,66.0,64.0,-100.00,WSW,245,4.0,7.0,95,-99.99,,,-99.99,,2013-05-11 12:22:00,
2013-05-11 08:32:00,66.0,64.0,-100.00,SW,225,1.0,6.0,94,-99.99,,,-99.99,,2013-05-11 12:32:00,
2013-05-11 08:42:00,66.0,64.0,-100.00,SW,235,4.0,7.0,93,-99.99,,,-99.99,,2013-05-11 12:42:00,
2013-05-11 08:51:00,67.0,64.0,-100.00,West,270,6.0,11.0,91,-99.99,,,-99.99,,2013-05-11 12:51:00,
2013-05-11 09:02:00,68.0,65.0,-100.00,WSW,250,5.0,10.0,89,-99.99,,,-99.99,,2013-05-11 13:02:00,
2013-05-11 09:11:00,69.0,65.0,-100.00,West,275,3.0,14.0,86,-99.99,,,-99.99,,2013-05-11 13:11:00,
2013-05-11 09:21:00,70.0,65.0,-100.00,West,275,3.0,11.0,84,-99.99,,,-99.99,,2013-05-11 13:21:00,
2013-05-11 09:32:00,70.0,64.0,-100.00,NW,305,4.0,11.0,82,-99.99,,,-99.99,,2013-05-11 13:32:00,
2013-05-11 09:42:00,71.0,65.0,-100.00,NW,310,4.0,11.0,81,-99.99,,,-99.99,,2013-05-11 13:42:00,
2013-05-11 09:52:00,71.0,64.0,-100.00,West,270,4.0,13.0,79,-99.99,,,-99.99,,2013-05-11 13:52:00,
2013-05-11 10:02:00,72.0,65.0,-100.00,West,260,5.0,11.0,78,-99.99,,,-99.99,,2013-05-11 14:02:00,
2013-05-11 10:11:00,72.0,64.0,-100.00,West,270,6.0,14.0,76,-99.99,,,-99.99,,2013-05-11 14:11:00,
2013-05-11 10:21:00,73.0,65.0,-100.00,WSW,255,5.0,14.0,74,-99.99,,,-99.99,,2013-05-11 14:21:00,
2013-05-11 10:32:00,73.0,64.0,-100.00,West,270,5.0,15.0,73,-99.99,,,-99.99,,2013-05-11 14:32:00,
2013-05-11 10:42:00,75.0,65.0,-100.00,WNW,295,4.0,11.0,71,-99.99,,,-99.99,,2013-05-11 14:42:00,
2013-05-11 10:52:00,76.0,64.0,-100.00,West,265,7.0,13.0,67,-99.99,,,-99.99,,2013-05-11 14:52:00,
2013-05-11 11:01:00,76.0,64.0,-100.00,West,265,4.0,14.0,66,-99.99,,,-99.99,,2013-05-11 15:01:00,
2013-05-11 11:12:00,75.0,63.0,-100.00,WSW,240,5.0,13.0,66,-99.99,,,-99.99,,2013-05-11 15:12:00,
2013-05-11 11:22:00,75.0,63.0,-100.00,SW,230,6.0,11.0,66,-99.99,,,-99.99,,2013-05-11 15:22:00,
2013-05-11 11:32:00,75.0,63.0,-100.00,SW,230,6.0,11.0,66,-99.99,,,-99.99,,2013-05-11 15:32:00,
2013-05-11 11:43:00,77.0,63.0,-100.00,WNW,290,6.0,12.0,61,-99.99,,,-99.99,,2013-05-11 15:43:00,
2013-05-11 11:53:00,77.0,63.0,-100.00,WSW,255,8.0,12.0,62,-99.99,,,-99.99,,2013-05-11 15:53:00,
2013-05-11 12:03:00,78.0,63.0,-100.00,SW,235,7.0,14.0,62,-99.99,,,-99.99,,2013-05-11 16:03:00,
2013-05-11 12:12:00,77.0,63.0,-100.00,WNW,290,5.0,13.0,63,-99.99,,,-99.99,,2013-05-11 16:12:00,
2013-05-11 12:23:00,76.0,63.0,-100.00,SW,220,4.0,14.0,63,-99.99,,,-99.99,,2013-05-11 16:23:00,
2013-05-11 12:33:00,77.0,63.0,-100.00,WSW,240,6.0,13.0,63,-99.99,,,-99.99,,2013-05-11 16:33:00,
2013-05-11 12:42:00,77.0,63.0,-100.00,West,280,6.0,14.0,63,-99.99,,,-99.99,,2013-05-11 16:42:00,
2013-05-11 12:52:00,76.0,63.0,-100.00,WNW,285,7.0,16.0,64,-99.99,,,-99.99,,2013-05-11 16:52:00,
2013-05-11 13:02:00,77.0,63.0,-100.00,West,260,7.0,16.0,63,-99.99,,,-99.99,,2013-05-11 17:02:00,
2013-05-11 13:12:00,76.0,63.0,-100.00,SW,235,9.0,15.0,64,-99.99,,,-99.99,,2013-05-11 17:12:00,
2013-05-11 13:22:00,75.0,63.0,-100.00,West,265,8.0,19.0,66,-99.99,,,-99.99,,2013-05-11 17:22:00,
2013-05-11 13:32:00,75.0,63.0,-100.00,West,265,8.0,19.0,66,-99.99,,,-99.99,,2013-05-11 17:32:00,
2013-05-11 13:42:00,75.0,63.0,-100.00,West,265,7.0,16.0,66,-99.99,,,-99.99,,2013-05-11 17:42:00,
2013-05-11 13:52:00,76.0,63.0,-100.00,WNW,295,9.0,16.0,65,-99.99,,,-99.99,,2013-05-11 17:52:00,
2013-05-11 14:01:00,77.0,63.0,-100.00,WSW,255,8.0,14.0,63,-99.99,,,-99.99,,2013-05-11 18:01:00,
2013-05-11 14:12:00,77.0,63.0,-100.00,West,270,4.0,17.0,63,-99.99,,,-99.99,,2013-05-11 18:12:00,
2013-05-11 14:21:00,78.0,63.0,-100.00,West,260,11.0,17.0,62,-99.99,,,-99.99,,2013-05-11 18:21:00,
2013-05-11 14:32:00,77.0,63.0,-100.00,West,270,9.0,22.0,63,-99.99,,,-99.99,,2013-05-11 18:32:00,
2013-05-11 14:42:00,75.0,63.0,-100.00,SW,230,8.0,18.0,66,-99.99,,,-99.99,,2013-05-11 18:42:00,
2013-05-11 14:52:00,74.0,64.0,-100.00,SW,235,8.0,17.0,73,-99.99,,,-99.99,,2013-05-11 18:52:00,
2013-05-11 15:02:00,72.0,66.0,-100.00,West,265,9.0,18.0,82,-99.99,,,-99.99,,2013-05-11 19:02:00,
2013-05-11 15:11:00,72.0,67.0,-100.00,SW,235,11.0,15.0,84,-99.99,,,-99.99,,2013-05-11 19:11:00,
2013-05-11 15:22:00,73.0,67.0,-100.00,West,260,7.0,17.0,82,-99.99,,,-99.99,,2013-05-11 19:22:00,
2013-05-11 15:32:00,73.0,67.0,-100.00,WSW,245,7.0,18.0,80,-99.99,,,-99.99,,2013-05-11 19:32:00,
2013-05-11 15:42:00,74.0,67.0,-100.00,SW,235,9.0,16.0,79,-99.99,,,-99.99,,2013-05-11 19:42:00,
2013-05-11 15:52:00,74.0,67.0,-100.00,SW,230,7.0,15.0,77,-99.99,,,-99.99,,2013-05-11 19:52:00,
2013-05-11 16:02:00,74.0,66.0,-100.00,SW,235,10.0,18.0,76,-99.99,,,-99.99,,2013-05-11 20:02:00,
2013-05-11 16:12:00,74.0,66.0,-100.00,WSW,245,6.0,14.0,76,-99.99,,,-99.99,,2013-05-11 20:12:00,
2013-05-11 16:22:00,74.0,66.0,-100.00,West,260,6.0,17.0,76,-99.99,,,-99.99,,2013-05-11 20:22:00,
2013-05-11 16:32:00,75.0,67.0,-100.00,SW,230,7.0,14.0,75,-99.99,,,-99.99,,2013-05-11 20:32:00,
2013-05-11 16:42:00,75.0,67.0,-100.00,WNW,300,6.0,19.0,75,-99.99,,,-99.99,,2013-05-11 20:42:00,
2013-05-11 16:52:00,74.0,66.0,-100.00,SW,235,7.0,19.0,76,-99.99,,,-99.99,,2013-05-11 20:52:00,
2013-05-11 17:02:00,75.0,66.0,-100.00,SW,230,9.0,15.0,75,-99.99,,,-99.99,,2013-05-11 21:02:00,
2013-05-11 17:11:00,75.0,67.0,-100.00,WSW,255,6.0,20.0,75,-99.99,,,-99.99,,2013-05-11 21:11:00,
2013-05-11 17:22:00,75.0,66.0,-100.00,West,265,9.0,20.0,74,-99.99,,,-99.99,,2013-05-11 21:22:00,
2013-05-11 17:33:00,76.0,66.0,-100.00,West,280,7.0,19.0,72,-99.99,,,-99.99,,2013-05-11 21:33:00,
2013-05-11 17:43:00,77.0,66.0,-100.00,West,275,5.0,16.0,70,-99.99,,,-99.99,,2013-05-11 21:43:00,
2013-05-11 17:52:00,77.0,65.0,-100.00,SW,235,9.0,25.0,68,-99.99,,,-99.99,,2013-05-11 21:52:00,
2013-05-11 18:02:00,77.0,65.0,-100.00,SW,230,13.0,21.0,67,-99.99,,,-99.99,,2013-05-11 22:02:00,
2013-05-11 18:13:00,77.0,65.0,-100.00,WSW,255,10.0,20.0,66,-99.99,,,-99.99,,2013-05-11 22:13:00,
2013-05-11 18:23:00,78.0,65.0,-100.00,West,270,10.0,19.0,64,-99.99,,,-99.99,,2013-05-11 22:23:00,
2013-05-11 18:33:00,77.0,64.0,-100.00,West,260,8.0,21.0,64,-99.99,,,-99.99,,2013-05-11 22:33:00,
2013-05-11 18:42:00,76.0,63.0,-100.00,WSW,250,8.0,26.0,64,-99.99,,,-99.99,,2013-05-11 22:42:00,
2013-05-11 18:52:00,76.0,63.0,-100.00,WSW,240,8.0,19.0,64,-99.99,,,-99.99,,2013-05-11 22:52:00,
2013-05-11 19:02:00,76.0,63.0,-100.00,WSW,240,6.0,23.0,65,-99.99,,,-99.99,,2013-05-11 23:02:00,
2013-05-11 19:12:00,76.0,63.0,-100.00,WSW,255,11.0,24.0,65,-99.99,,,-99.99,,2013-05-11 23:12:00,
2013-05-11 19:22:00,75.0,63.0,-100.00,WSW,255,9.0,23.0,65,-99.99,,,-99.99,,2013-05-11 23:22:00,
2013-05-11 19:32:00,76.0,63.0,-100.00,WNW,285,4.0,16.0,66,-99.99,,,-99.99,,2013-05-11 23:32:00,
2013-05-11 19:42:00,75.0,63.0,-100.00,West,275,9.0,14.0,66,-99.99,,,-99.99,,2013-05-11 23:42:00,
2013-05-11 19:52:00,75.0,63.0,-100.00,West,275,9.0,14.0,66,-99.99,,,-99.99,,2013-05-11 23:52:00,
2013-05-11 20:01:00,75.0,63.0,-100.00,West,275,5.0,15.0,66,-99.99,,,-99.99,,2013-05-12 00:01:00,
2013-05-11 20:12:00,75.0,63.0,-100.00,NW,315,4.0,9.0,66,-99.99,,,-99.99,,2013-05-12 00:12:00,
2013-05-11 20:21:00,72.0,60.0,-100.00,NNE,20,4.0,15.0,64,-99.99,,,-99.99,,2013-05-12 00:21:00,
2013-05-11 20:32:00,72.0,60.0,-100.00,NNE,20,4.0,15.0,64,-99.99,,,-99.99,,2013-05-12 00:32:00,
2013-05-11 20:42:00,69.0,61.0,-100.00,North,5,5.0,19.0,77,-99.99,,,-99.99,,2013-05-12 00:42:00,
2013-05-11 20:52:00,69.0,61.0,-100.00,North,5,5.0,19.0,77,-99.99,,,-99.99,,2013-05-12 00:52:00,
2013-05-11 21:01:00,65.0,63.0,-100.00,North,0,3.0,9.0,93,-99.99,,,-99.99,,2013-05-12 01:01:00,
2013-05-11 21:11:00,65.0,63.0,-100.00,SSW,205,1.0,9.0,96,-99.99,,,-99.99,,2013-05-12 01:11:00,
2013-05-11 21:21:00,64.0,64.0,-100.00,SW,235,1.0,2.0,99,-99.99,,,-99.99,,2013-05-12 01:21:00,
2013-05-11 21:32:00,64.0,64.0,-100.00,NW,315,1.0,7.0,99,-99.99,,,-99.99,,2013-05-12 01:32:00,
2013-05-11 21:42:00,64.0,64.0,-100.00,South,180,2.0,3.0,99,-99.99,,,-99.99,,2013-05-12 01:42:00,
2013-05-11 21:52:00,64.0,64.0,-100.00,South,180,2.0,3.0,99,-99.99,,,-99.99,,2013-05-12 01:52:00,
2013-05-11 22:02:00,64.0,64.0,-100.00,WSW,240,1.0,2.0,99,-99.99,,,-99.99,,2013-05-12 02:02:00,
2013-05-11 22:12:00,64.0,64.0,-100.00,WSW,245,2.0,4.0,99,-99.99,,,-99.99,,2013-05-12 02:12:00,
2013-05-11 22:22:00,64.0,64.0,-100.00,South,190,0.0,1.0,99,-99.99,,,-99.99,,2013-05-12 02:22:00,
2013-05-11 22:32:00,64.0,64.0,-100.00,West,265,0.0,3.0,99,-99.99,,,-99.99,,2013-05-12 02:32:00,
2013-05-11 22:42:00,64.0,64.0,-100.00,WSW,250,3.0,6.0,99,-99.99,,,-99.99,,2013-05-12 02:42:00,
2013-05-11 22:52:00,64.0,64.0,-100.00,SW,235,2.0,6.0,99,-99.99,,,-99.99,,2013-05-12 02:52:00,
2013-05-11 23:02:00,64.0,64.0,-100.00,SW,230,4.0,6.0,99,-99.99,,,-99.99,,2013-05-12 03:02:00,
2013-05-11 23:11:00,64.0,64.0,-100.00,SW,230,6.0,9.0,99,-99.99,,,-99.99,,2013-05-12 03:11:00,
2013-05-11 23:22:00,64.0,64.0,-100.00,WSW,245,3.0,9.0,99,-99.99,,,-99.99,,2013-05-12 03:22:00,
2013-05-11 23:33:00,64.0,64.0,-100.00,SW,235,4.0,8.0,99,-99.99,,,-99.99,,2013-05-12 03:33:00,
2013-05-11 23:43:00,64.0,64.0,-100.00,SSW,210,1.0,8.0,99,-99.99,,,-99.99,,2013-05-12 03:43:00,
2013-05-11 23:53:00,64.0,64.0,-100.00,SSW,210,1.0,8.0,99,-99.99,,,-99.99,,2013-05-12 03:53:00,